This is the latest recevied weather packets stored in our database for station/object IW9CSJ-13. If no packets are shown the sender has not sent any weather packets the latest 10 day(s).
| Time | Temp. | Humidity | Pressure | Rain* | Wind** | Luminosity | Snow |
|---|---|---|---|---|---|---|---|
| 1778024719 | 14.44° C | 89% | 1014.5 hPa | 0 mm | - | - | - |
| 1778023217 | 14.44° C | 89% | 1014.7 hPa | 0 mm | - | - | - |
| 1778019623 | 14.44° C | 89% | 1015.2 hPa | 0 mm | - | - | - |
| 1778018724 | 14.44° C | 89% | 1015.3 hPa | 0 mm | - | - | - |
| 1778018126 | 14.44° C | 89% | 1015.3 hPa | 0 mm | - | - | - |
| 1778017825 | 14.44° C | 89% | 1015.4 hPa | 0 mm | - | - | - |
| 1778015720 | 14.44° C | 89% | 1015.4 hPa | 0 mm | - | - | - |
| 1778011217 | 15° C | 88% | 1015.7 hPa | 0 mm | - | - | - |
| 1778004318 | 15.56° C | 87% | 1015.3 hPa | 0 mm | - | - | - |
| 1778004023 | 15.56° C | 86% | 1015.2 hPa | 0 mm | - | - | - |
| 1778003425 | 15.56° C | 86% | 1015.3 hPa | 0 mm | - | - | - |
| 1778003118 | 15.56° C | 86% | 1015.1 hPa | 0 mm | - | - | - |
| 1778002540 | 15.56° C | 86% | 1015.3 hPa | 0 mm | - | - | - |
| 1777998939 | 16.11° C | 83% | 1015.2 hPa | 0 mm | - | - | - |
| 1777997721 | 16.11° C | 81% | 1015.2 hPa | 0 mm | - | - | - |
| 1777996525 | 16.67° C | 79% | 1015.1 hPa | 0 mm | - | - | - |
| 1777996224 | 16.67° C | 79% | 1015 hPa | 0 mm | - | - | - |
| 1777995317 | 16.67° C | 76% | 1014.9 hPa | 0 mm | - | - | - |
| 1777995022 | 16.67° C | 75% | 1015.1 hPa | 0 mm | - | - | - |
| 1777994720 | 16.67° C | 75% | 1015.2 hPa | 0 mm | - | - | - |
| 1777992020 | 17.22° C | 75% | 1015 hPa | 0 mm | - | - | - |
| 1777989326 | 17.22° C | 77% | 1015.4 hPa | 0 mm | - | - | - |
| 1777989041 | 17.22° C | 78% | 1015.4 hPa | 0 mm | - | - | - |
| 1777986027 | 17.78° C | 77% | 1015.4 hPa | 0 mm | - | - | - |
| 1777984524 | 17.78° C | 76% | 1015.7 hPa | 0 mm | - | - | - |
* Rain latest hour (hover to see other rain measurements)
** Current wind speed in m/s (hover to see current wind gust speed)